Location: Umburanas
(4.5000°S, 37.9667°W)
Time: 14:24:29
(UTC+00:00)

Ariane H10 - Pass Details

Date: 19 November 2019
Orbit: 538 x 35425 km, 8.0° (Epoch: 06 December)

Event Time Altitude Azimuth Distance (km) Brightness Sun altitude
Rises 21:55:11 0° 289° (WNW) 3,812 6.8 -21.3°
Reaches altitude 10° 21:59:19 10° 316° (NW) 1,997 4.9 -22.2°
Enters shadow 22:00:51 14° 342° (NNW) 1,586 4.1 -22.6°
